Regional Weather Roundup
Issued by NWS

Home | Current Version | Previous Version | Graphics & Text | Print | Product List | Glossary On
Versions: 1 2 3 4 5 6 7 8 9 10 11 12 13 14 15 16 17 18 19 20 21 22 23 24 25 26 27 28 29 30 31 32 33 34 35 36 37 38 39 40 41 42 43 44 45 46 47 48 49 50
000
ASUS43 KIND 080259
RWRIN

WEATHER ROUNDUP FOR INDIANA
NATIONAL WEATHER SERVICE INDIANAPOLIS IN
1000 PM EST WED DEC 07 2016

NOTE: "FAIR" INDICATES FEW OR NO CLOUDS BELOW 12,000 FEET WITH NO
SIGNIFICANT WEATHER AND/OR OBSTRUCTIONS TO VISIBILITY.

* - STATION DOES NOT REPORT WEATHER SUCH AS PRECIPITATION OR FOG.

+ - STATION NOT QUALITY CONTROLLED BY THE NATIONAL WEATHER SERVICE.
    USE DATA WITH CAUTION...ESPECIALLY DEWPOINT AND RELATIVE
    HUMIDITY OBSERVATIONS.

INZ001>003-010>013-019-020-080400-
NORTHWEST INDIANA

CITY           SKY/WX    TMP DP  RH WIND       PRES   REMARKS
GARY /AIRPORT/ CLOUDY    27  18  69 W22G35    30.16R WCI  12
MONTICELLO +   CLEAR     27  17  66 W13G18    30.17R WCI  16
RENSSELAER +     N/A     27  21  80 W16G24    30.17S WCI  14
VALPARAISO     MOCLDY    25  17  72 W17G23    30.14R WCI  12

$$

LMZ046-743>745-080400-
SOUTHERN LAKE MICHIGAN

STATION/POSITION TIME  TEMP    WIND        PRES    WAVE
                       AIR SEA DIR/SP/G            HT
                 (UTC) (F)     (DEG/KT/KT) (MB)    (FT)
BURNS HARBOR     0240   28     270/ 22/ 27 1021.0R
MICHIGAN CITY    0230   28     240/ 29/ 34   N/A

$$

INZ004-005-014>016-021>024-080400-
NORTH CENTRAL INDIANA

CITY           SKY/WX    TMP DP  RH WIND       PRES   REMARKS
GOSHEN         CLOUDY    27  19  72 W20G28    30.11R WCI  13
SOUTH BEND     CLOUDY    26  19  74 W14       30.12R WCI  14

$$

INZ006>009-017-018-025>027-080400-
NORTHEAST INDIANA

CITY           SKY/WX    TMP DP  RH WIND       PRES   REMARKS
ANGOLA *+      CLOUDY    27  21  80 W12       30.06S WCI  16
FORT WAYNE     PTCLDY    29  22  75 W17G23    30.11R WCI  17
KENDALLVILLE + CLOUDY    28  21  76 W17G26    30.09R WCI  15

$$

INZ028-029-035-036-043>045-051>053-080400-
WEST CENTRAL INDIANA

CITY           SKY/WX    TMP DP  RH WIND       PRES   REMARKS
CRAWFORDSVL +  CLEAR     27  21  80 W12       30.18F WCI  16
GREENCASTLE +  CLEAR     30  25  80 W3        30.20S
LAFAYETTE      PTCLDY    27  20  75 W12       30.18S WCI  17
TERRE HAUTE    PTCLDY    31  21  66 W8        30.22S WCI  23

$$

INZ030>032-037>040-046>048-054>057-064-065-080400-
CENTRAL INDIANA

CITY           SKY/WX    TMP DP  RH WIND       PRES   REMARKS
COLUMBUS       CLOUDY    32  25  74 W6        30.20R WCI  26
FRANKFORT +    CLEAR     31  25  80 W13       30.18S WCI  21
GREENWOOD *+   MOCLDY    32  24  73 W8G16     30.19S WCI  25
INDIANAPOLIS   PTCLDY    29  21  72 W9        30.18S WCI  20
-EAGLE CREEK   CLEAR     30  22  72 W9        30.17F WCI  22
KOKOMO +       MOCLDY    29  24  82 W18       30.15F WCI  16
SHELBYVILLE    CLOUDY    32  22  66 W8        30.17F WCI  25

$$

INZ033-034-041-042-049-050-058-059-080400-
EAST CENTRAL INDIANA

CITY           SKY/WX    TMP DP  RH WIND       PRES   REMARKS
MUNCIE         PTCLDY    30  24  78 W12       30.14F WCI  20

$$

INZ060-061-067>069-081>083-085>088-080400-
SOUTHWEST INDIANA

CITY           SKY/WX    TMP DP  RH WIND       PRES   REMARKS
EVANSVILLE     CLOUDY    36  25  64 NW6       30.25R
HUNTINGBURG *+ CLOUDY    34  25  69 NW8       30.23S WCI  27

$$

INZ062-063-066-070>080-084-089>092-080400-
SOUTH CENTRAL AND SOUTHEAST INDIANA

CITY           SKY/WX    TMP DP  RH WIND       PRES   REMARKS
BLOOMINGTON    CLOUDY    31  21  66 W9        30.19S WCI  23
MADISON *+     MOCLDY    34  23  64 W5        30.20S WCI  30
SEYMOUR +      CLOUDY    36  25  64 W5        30.19F

$$




USA.gov is the U.S. government's official web portal to all federal, state and local government web resources and services.